User: anonymous   Login
Location: Unspecified
(0.0000°N, 0.0000°E)
Time: 23:10:50
(UTC+00:00)
Language:

COSMOS 2508 - Orbit

View from above orbital plane
View from above orbital plane
View from above satellite
View from above satellite

Ground track
Ground track

The orbit data is extracted from the following two-line orbital elements,

1 40921U 15050B   18350.46967720  .00000014  00000-0  32420-4 0  9995
2 40921  82.4874 344.8130 0012728 233.1161 126.8754 12.42883805146523
Epoch (UTC): 16 December 2018 11:16:20
Eccentricity: 0.0012728
inclination: 82.4874°
perigee height: 1484 km
apogee height: 1504 km
right ascension of ascending node: 344.8130°
argument of perigee: 233.1161°
revolutions per day: 12.42883805
mean anomaly at epoch: 126.8754°
orbit number at epoch: 14652

The dashed part of the orbit path shows where the satellite is in the earth's shadow,  

DLR